This is the latest recevied weather packets stored in our database for station/object KO4LCK. If no packets are shown the sender has not sent any weather packets the latest 10 day(s).
| Time | Temp. | Humidity | Pressure | Rain* | Wind** | Luminosity | Snow |
|---|---|---|---|---|---|---|---|
| 1788624458 | 35° C | 54% | 1015.4 hPa | 0 mm | - | 673 W/m² | - |
| 1788624157 | 35° C | 53% | 1015.6 hPa | 0 mm | - | 663 W/m² | - |
| 1788623852 | 35.56° C | 53% | 1015.7 hPa | 0 mm | - | 654 W/m² | - |
| 1788623551 | 35° C | 54% | 1015.5 hPa | 0 mm | - | 646 W/m² | - |
| 1788623245 | 35° C | 54% | 1015.7 hPa | 0 mm | - | 638 W/m² | - |
| 1788622941 | 35° C | 57% | 1015.7 hPa | 0 mm | - | 625 W/m² | - |
| 1788622636 | 34.44° C | 56% | 1015.7 hPa | 0 mm | - | 616 W/m² | - |
| 1788622332 | 34.44° C | 59% | 1015.9 hPa | 0 mm | - | 605 W/m² | - |
| 1788622027 | 33.89° C | 60% | 1015.9 hPa | 0 mm | - | 589 W/m² | - |
| 1788621721 | 33.89° C | 61% | 1015.7 hPa | 0 mm | - | 588 W/m² | - |
| 1788621416 | 34.44° C | 58% | 1015.9 hPa | 0 mm | - | 573 W/m² | - |
| 1788621111 | 33.89° C | 59% | 1015.7 hPa | 0 mm | - | 560 W/m² | - |
| 1788620806 | 33.89° C | 59% | 1015.8 hPa | 0 mm | - | 549 W/m² | - |
| 1788620505 | 33.33° C | 60% | 1015.9 hPa | 0 mm | - | 531 W/m² | - |
| 1788620203 | 32.78° C | 63% | 1015.9 hPa | 0 mm | - | 520 W/m² | - |
| 1788619903 | 32.78° C | 64% | 1015.9 hPa | 0 mm | - | 503 W/m² | - |
| 1788619597 | 32.78° C | 65% | 1015.9 hPa | 0 mm | - | 487 W/m² | - |
| 1788619296 | 31.67° C | 66% | 1015.8 hPa | 0 mm | - | 472 W/m² | - |
| 1788618996 | 31.67° C | 66% | 1015.8 hPa | 0 mm | - | 461 W/m² | - |
| 1788618692 | 31.67° C | 65% | 1016 hPa | 0 mm | - | 441 W/m² | - |
| 1788618390 | 31.67° C | 67% | 1016.1 hPa | 0 mm | - | 423 W/m² | - |
| 1788618090 | 31.11° C | 68% | 1015.9 hPa | 0 mm | - | 411 W/m² | - |
| 1788617784 | 30.56° C | 69% | 1016 hPa | 0 mm | - | 393 W/m² | - |
| 1788617481 | 30.56° C | 70% | 1016 hPa | 0 mm | - | 382 W/m² | - |
| 1788617176 | 30.56° C | 69% | 1016 hPa | 0 mm | - | 368 W/m² | - |
* Rain latest hour (hover to see other rain measurements)
** Current wind speed in m/s (hover to see current wind gust speed)